Regional Weather Roundup
Issued by NWS

Home | Current Version | Previous Version | Text Only | Print | Product List | Glossary On
Versions: 1 2 3 4 5 6 7 8 9 10 11 12 13 14 15 16 17 18 19 20 21 22 23 24 25 26 27 28 29 30 31 32 33 34 35 36 37 38 39 40 41 42 43 44 45 46 47 48 49 50
784
ASUS43 KBIS 102131
RWRND
NORTH DAKOTA REGIONAL WEATHER ROUNDUP
NATIONAL WEATHER SERVICE EASTERN NORTH DAKOTA/GRAND FORKS ND
300 PM CST WED FEB 10 2016

  NOTE: "FAIR" INDICATES FEW OR NO CLOUDS BELOW 12,000 FEET WITH NO
  SIGNIFICANT WEATHER AND/OR OBSTRUCTIONS TO VISIBILITY.

NDZ001>003-009>011-017-102200-
...NORTHWEST NORTH DAKOTA...

CITY           SKY/WX    TMP DP  RH WIND       PRES   REMARKS
WILLISTON      CLOUDY    31  24  75 N10       30.09R WCI  22
MINOT          CLOUDY    17   7  64 N8        30.10R WCI   7
MINOT AFB      FLURRIES  14  10  85 NE9       30.11R WCI   2
$$

NDZ018>021-031>035-040>046-102200-
...SOUTHWEST NORTH DAKOTA...

CITY           SKY/WX    TMP DP  RH WIND       PRES   REMARKS
BISMARCK       CLOUDY    25  15  66 NE9       30.04R WCI  15
DICKINSON      CLOUDY    34  27  75 N15       29.99R WCI  24
GARRISON         N/A     20  15  81 N9        30.05R WCI   9
HETTINGER      MOSUNNY   46  31  55 N20       29.98R
$$

NDZ004>008-012>016-024-026-027-054-102200-
...NORTHEAST NORTH DAKOTA...

CITY           SKY/WX    TMP DP  RH WIND       PRES   REMARKS
GRAND FORKS    CLOUDY    10   0  63 NE9       30.21R WCI  -3
GRAND FORKS AF CLOUDY     9   0  66 NE9       30.20S WCI  -5
DEVILS LAKE    FLURRIES   8   2  76 E9        30.14R WCI  -5
$$

NDZ022-023-025-028>030-036>039-047>053-102200-
...SOUTHEAST NORTH DAKOTA...

CITY           SKY/WX    TMP DP  RH WIND       PRES   REMARKS
JAMESTOWN      LGT SNOW   9   5  84 E9        30.09R FOG     WCI  -4
FARGO          CLOUDY    14   1  56 NE8       30.15R WCI   3
WAHPETON       CLOUDY    14   3  62 E8        30.13S WCI   3
$$




USA.gov is the U.S. government's official web portal to all federal, state and local government web resources and services.